Regional Weather Roundup
Issued by NWS

Home | Current Version | Previous Version | Graphics & Text | Print | Product List | Glossary On
Versions: 1 2 3 4 5 6 7 8 9 10 11 12 13 14 15 16 17 18 19 20 21 22 23 24 25 26 27 28 29 30 31 32 33 34 35 36 37 38 39 40 41 42 43 44 45 46 47 48 49 50
000
ASUS43 KBIS 052202
RWRND

NORTH DAKOTA REGIONAL WEATHER ROUNDUP
NATIONAL WEATHER SERVICE BISMARCK ND
500 PM CDT SUN JUL 05 2015

NOTE: "FAIR" INDICATES FEW OR NO CLOUDS BELOW 12,000 FEET WITH NO
SIGNIFICANT WEATHER AND/OR OBSTRUCTIONS TO VISIBILITY.


NDZ001>003-009>011-017-052300-
NORTHWEST NORTH DAKOTA

CITY           SKY/WX    TMP DP  RH WIND       PRES   REMARKS
WILLISTON      PTSUNNY   75  46  35 N13G24    29.99S HAZE
MINOT          CLOUDY    73  58  59 NW12      29.91R HAZE
$$

NDZ018>021-031>035-040>046-052300-
SOUTHWEST NORTH DAKOTA

CITY           SKY/WX    TMP DP  RH WIND       PRES   REMARKS
BISMARCK       CLOUDY    75  58  55 N16G25    29.91R HAZE
DICKINSON      LGT RAIN  66  57  72 N9        29.98R
GARRISON         N/A     72  60  66 N9        29.92R
HETTINGER ARPT CLOUDY    70  57  63 N15       29.99R
$$

NDZ004>008-012>016-024-026-027-054-052300-
NORTHEAST NORTH DAKOTA

CITY           SKY/WX    TMP DP  RH WIND       PRES   REMARKS
GRAND FORKS    CLOUDY    75  69  81 N12       29.78S
GRND FRKS AFB  CLOUDY    73  66  78 N9        29.81R
DEVILS LAKE    MOSUNNY   73  61  64 N14       29.84S
$$

NDZ022-023-025-028>030-036>039-047>053-052300-
SOUTHEAST NORTH DAKOTA

CITY           SKY/WX    TMP DP  RH WIND       PRES   REMARKS
FARGO          PTSUNNY   84  70  62 N7        29.74S
JAMESTOWN      MOSUNNY   76  65  68 N16       29.82R
$$



USA.gov is the U.S. government's official web portal to all federal, state and local government web resources and services.